Regional Weather Roundup
Issued by NWS

Home | Current Version | Previous Version | Graphics & Text | Print | Product List | Glossary On
Versions: 1 2 3 4 5 6 7 8 9 10 11 12 13 14 15 16 17 18 19 20 21 22 23 24 25 26 27 28 29 30 31 32 33 34 35 36 37 38 39 40 41 42 43 44 45 46 47 48 49
000
ASUS45 KCYS 201310
RWRWY

WYOMING REGIONAL WEATHER ROUNDUP
NATIONAL WEATHER SERVICE CHEYENNE WY
700 AM MDT SAT SEP 20 2014

NOTE:  "FAIR" INDICATES FEW OR NO CLOUDS BELOW 12,000 FEET
WITH NO SIGNIFICANT WEATHER AND/OR OBSTRUCTIONS TO VISIBILITY.

WYZ001-201400-
YELLOWSTONE NATIONAL PARK

CITY           SKY/WX    TMP DP  RH WIND       PRES   REMARKS
LK YELLOWSTONE   N/A     33  31  92 CALM      30.41R
W YELLOWSTONE  NOT AVBL

$$
WYZ002>013-054>058-071-098>099-201400-
NORTHERN WYOMING

CITY           SKY/WX    TMP DP  RH WIND       PRES   REMARKS
JACKSON        CLEAR     36  36 100 CALM      30.34R
CODY             N/A    N/A N/A N/A MISG        N/A
GREYBULL       PTCLDY    52  46  80 NE3       30.17R
WORLAND        CLEAR     49  44  83 CALM      30.17R
SHERIDAN       CLEAR     52  42  69 W3        30.18R
BUFFALO        CLEAR     55  40  56 N8        30.21R
GILLETTE       CLEAR     54  45  71 W10       30.15R
HULETT         FAIR      54  45  71 MISG      30.15
NEWCASTLE      FAIR      52  43  71 N9        30.15

$$
WYZ014>020-022>026-101>103-201400-
CENTRAL WYOMING

CITY           SKY/WX    TMP DP  RH WIND       PRES   REMARKS
BIG PINEY      PTCLDY    40  30  67 NW6       30.34R
PINEDALE       MOSUNNY   37  36  93 W6        30.34R WCI  33
DUBOIS         FAIR      41  34  75 NW10      30.34R
LANDER         CLEAR     55  37  50 W7        30.24R
RIVERTON       CLEAR     49  41  74 NW5       30.25R
CASPER         CLEAR     44  39  82 NW7       30.23R
DOUGLAS        CLEAR     45  42  89 NW3       30.21R

$$
WYZ021-027>030-104>119-201400-
SOUTHERN WYOMING

CITY           SKY/WX    TMP DP  RH WIND       PRES   REMARKS
EVANSTON       CLEAR     50  37  61 E5        30.33R
KEMMERER       SUNNY     41  34  75 N14       30.35R
FORT BRIDGER   FAIR      50  38  63 W7        30.35R
ROCK SPRINGS   NOT AVBL
DIXON          FAIR      38  34  87 NE6       30.33R WCI  33
RAWLINS        PTCLDY    41  32  70 N5        30.31R
SARATOGA       FAIR      37  36  93 CALM      30.32R
LARAMIE        PTCLDY    39  34  82 CALM      30.31R
CHEYENNE       CLEAR     52  43  71 NW9       30.26R
TORRINGTON     CLEAR     50  45  83 W3        30.15R
PINE BLUFFS    FAIR      46  45  93 CALM      30.21R

$$


USA.gov is the U.S. government's official web portal to all federal, state and local government web resources and services.